Location: Montclair
(37.8322°N, 122.2092°W)
Time: 07:12:12
(UTC+00:00)

Cosmos 1606 Rocket - Pass Details

Date: 13 December 2024
Orbit: 599 x 625 km, 82.5° (Epoch: 18 January)

Event Time Altitude Azimuth Distance (km) Brightness Sun altitude
Rises 01:18:30 0° 220° (SW) 2,832 8.3 -5.8°
Reaches altitude 10° 01:21:10 10° 237° (WSW) 1,934 7.9 -6.3°
Maximum altitude 01:24:22 20° 285° (WNW) 1,387 6.1 -6.9°
Drops below altitude 10° 01:27:36 10° 334° (NNW) 1,948 6.2 -7.4°
Sets 01:30:18 0° 351° (N) 2,858 6.8 -7.9°
